Date String (YYYY-MM-DD hh:mm:ss) UTC,Instrument flags,Ambient pressure (hPa),Sample flow (lpm),Bypass flow (lpm),Sample temperature (°C),Ambient temperature (°C),ASC tube jacket temperature (°C),LED temperature (°C),Box temperature (°C),Sample RH (%),Span deviation,Mass concentration (μg/m³),Mass concentration (μg/m³),Mass concentration (μg/m³)
DateTimeUTC,F1_M11,P_M11,Q1_M11,Q2_M11,T1_M11,T2_M11,T3_M11,T4_M11,T5_M11,U1_M11,ZSPAN_M11,X2_M11,X0_M11,X1_M11
2023-05-21 23:00:00,,0831.8,5.01,0.00,29.7,26.1,00.0,37.9,31.1,16.1,0003.3,0014.04,0019.24,0013.21
2023-05-21 23:01:00,,0831.8,5.02,0.00,29.6,26.3,00.0,37.9,31.1,15.7,0003.3,0014.01,0019.04,0013.20
2023-05-21 23:02:00,,0831.9,4.99,0.00,29.6,26.7,00.0,37.9,31.1,15.3,0003.3,0013.99,0019.01,0013.21
2023-05-21 23:03:00,,0831.8,5.01,0.00,29.6,27.0,00.0,37.9,31.2,15.6,0003.4,0013.94,0018.85,0013.20
2023-05-21 23:04:00,,0831.8,5.00,0.00,29.6,27.3,00.0,37.9,31.2,15.5,0003.4,0013.93,0018.73,0013.22
2023-05-21 23:05:00,,0831.9,4.99,0.00,29.6,27.6,00.0,37.9,31.3,15.9,0003.4,0013.93,0018.50,0013.23
2023-05-21 23:06:00,,0831.9,5.01,0.00,29.6,27.8,00.0,37.9,31.3,14.9,0003.4,0013.88,0018.43,0013.22
2023-05-21 23:07:00,,0831.9,5.00,0.00,29.7,28.0,00.0,37.9,31.4,14.4,0003.6,0013.88,0018.38,0013.22
2023-05-21 23:08:00,,0831.9,5.00,0.00,29.7,28.2,00.0,38.0,31.4,15.3,0003.6,0013.90,0018.06,0013.23
2023-05-21 23:09:00,,0831.9,5.01,0.00,29.7,28.3,00.0,38.0,31.5,15.1,0003.6,0013.92,0018.05,0013.25
2023-05-21 23:10:00,,0831.8,4.98,0.00,29.8,27.8,00.0,38.0,31.4,15.0,0003.6,0013.95,0018.17,0013.23
2023-05-21 23:11:00,,0831.8,5.00,0.00,29.7,26.3,00.0,37.9,31.3,15.1,0003.7,0013.96,0018.18,0013.22
2023-05-21 23:12:00,,0831.7,5.01,0.00,29.7,26.1,00.0,37.8,31.2,14.7,0003.6,0014.00,0018.27,0013.22
2023-05-21 23:13:00,,0831.8,5.00,0.00,29.6,26.3,00.0,37.8,31.1,14.8,0003.7,0014.03,0018.38,0013.20
2023-05-21 23:14:00,,0831.9,5.00,0.00,29.6,26.6,00.0,37.8,31.1,14.7,0003.6,0014.16,0019.43,0013.23
2023-05-21 23:15:00,,0831.9,5.00,0.00,29.6,26.9,00.0,37.9,31.2,14.5,0003.8,0014.19,0019.72,0013.24
2023-05-21 23:16:00,,0831.9,5.00,0.00,29.6,27.2,00.0,37.9,31.2,14.9,0003.9,0014.16,0019.74,0013.22
2023-05-21 23:17:00,,0831.9,5.00,0.00,29.6,27.5,00.0,37.9,31.3,15.1,0003.7,0014.18,0019.86,0013.19
2023-05-21 23:18:00,,0831.9,5.01,0.00,29.6,27.8,00.0,37.9,31.3,15.9,0003.6,0014.18,0019.91,0013.17
2023-05-21 23:19:00,,0831.9,5.00,0.00,29.7,28.0,00.0,37.9,31.4,15.4,0003.6,0014.15,0020.06,0013.16
2023-05-21 23:20:00,,0831.9,4.98,0.00,29.7,28.2,00.0,37.9,31.4,15.9,0003.8,0014.18,0020.74,0013.17
2023-05-21 23:21:00,,0831.9,5.01,0.00,29.7,28.3,00.0,38.0,31.5,15.6,0003.9,0014.18,0020.96,0013.18
2023-05-21 23:22:00,,0831.9,5.00,0.00,29.7,28.2,00.0,38.0,31.5,15.2,0003.9,0014.18,0021.09,0013.17
2023-05-21 23:23:00,,0831.9,5.00,0.00,29.7,26.7,00.0,37.9,31.2,15.3,0003.9,0014.15,0021.05,0013.17
2023-05-21 23:24:00,,0831.9,5.01,0.00,29.7,26.1,00.0,37.8,31.2,14.9,0003.9,0014.07,0020.89,0013.13
2023-05-21 23:25:00,,0831.8,5.01,0.00,29.6,26.2,00.0,37.8,31.1,15.1,0004.0,0013.96,0020.17,0013.08
2023-05-21 23:26:00,,0831.8,5.01,0.00,29.6,26.5,00.0,37.8,31.1,15.1,0003.8,0014.00,0020.14,0013.07
2023-05-21 23:27:00,,0831.8,4.99,0.00,29.6,26.8,00.0,37.8,31.1,14.3,0003.8,0014.00,0020.09,0013.07
2023-05-21 23:28:00,,0831.8,5.00,0.00,29.6,27.1,00.0,37.9,31.2,14.4,0003.8,0013.96,0020.01,0013.08
2023-05-21 23:29:00,,0831.8,5.00,0.00,29.6,27.4,00.0,37.9,31.2,14.4,0003.9,0013.96,0020.04,0013.08
2023-05-21 23:30:00,,0831.8,5.01,0.00,29.6,27.7,00.0,37.9,31.3,14.2,0003.9,0013.98,0019.90,0013.08
2023-05-21 23:31:00,,0831.8,5.00,0.00,29.6,27.9,00.0,37.9,31.3,14.9,0003.9,0013.97,0019.20,0013.05
2023-05-21 23:32:00,,0831.8,4.99,0.00,29.6,28.1,00.0,37.9,31.4,14.6,0003.8,0013.94,0018.92,0013.03
2023-05-21 23:33:00,,0831.8,5.01,0.00,29.7,28.2,00.0,37.9,31.4,14.8,0003.8,0013.91,0018.87,0013.03
2023-05-21 23:34:00,,0831.8,5.01,0.00,29.7,27.7,00.0,37.9,31.4,14.7,0003.7,0013.89,0019.00,0013.00
2023-05-21 23:35:00,,0831.9,4.98,0.00,29.7,26.2,00.0,37.8,31.1,14.9,0003.8,0013.90,0019.08,0013.01
2023-05-21 23:36:00,,0832.2,5.01,0.00,29.6,26.0,00.0,37.8,31.1,15.3,0003.8,0013.91,0018.87,0013.01
2023-05-21 23:37:00,,0832.1,5.00,0.00,29.6,26.2,00.0,37.8,31.0,15.1,0003.7,0013.83,0018.52,0013.00
2023-05-21 23:38:00,,0831.8,4.99,0.00,29.5,26.5,00.0,37.8,31.0,16.0,0003.7,0013.81,0018.51,0012.99
2023-05-21 23:39:00,,0832.1,4.99,0.00,29.5,26.8,00.0,37.8,31.1,15.8,0003.8,0013.79,0018.56,0012.96
2023-05-21 23:40:00,,0832.0,5.00,0.00,29.5,27.1,00.0,37.8,31.1,15.6,0003.9,0013.80,0018.59,0012.96
2023-05-21 23:41:00,,0831.9,5.01,0.00,29.5,27.4,00.0,37.8,31.2,14.7,0003.8,0013.78,0018.53,0012.97
2023-05-21 23:42:00,,0831.9,5.00,0.00,29.5,27.7,00.0,37.8,31.2,15.1,0003.7,0013.76,0018.70,0012.98
2023-05-21 23:43:00,,0831.9,4.98,0.00,29.6,27.9,00.0,37.9,31.3,15.1,0003.7,0013.74,0018.77,0013.00
2023-05-21 23:44:00,,0832.0,5.00,0.00,29.6,28.1,00.0,37.9,31.3,15.0,0003.7,0013.72,0018.84,0013.01
2023-05-21 23:45:00,,0831.9,5.01,0.00,29.6,28.2,00.0,37.9,31.4,14.6,0003.8,0013.70,0018.59,0013.02
2023-05-21 23:46:00,,0831.8,5.00,0.00,29.7,28.4,00.0,37.9,31.4,14.4,0003.9,0013.71,0018.54,0013.04
2023-05-21 23:47:00,,0831.8,4.99,0.00,29.7,28.5,00.0,37.9,31.5,14.1,0003.7,0013.74,0018.57,0013.08
2023-05-21 23:48:00,,0831.8,4.99,0.00,29.7,27.6,00.0,37.9,31.4,14.5,0003.6,0013.77,0018.60,0013.08
2023-05-21 23:49:00,,0832.1,5.00,0.00,29.7,26.2,00.0,37.8,31.2,14.9,0003.7,0013.83,0018.70,0013.10
2023-05-21 23:50:00,,0832.0,5.01,0.00,29.6,26.0,00.0,37.8,31.1,14.7,0003.6,0013.87,0018.67,0013.16
2023-05-21 23:51:00,,0832.2,5.01,0.00,29.6,26.2,00.0,37.8,31.1,15.2,0003.5,0013.90,0019.39,0013.20
2023-05-21 23:52:00,,0832.1,4.99,0.00,29.5,26.5,00.0,37.8,31.1,15.5,0003.5,0013.98,0019.96,0013.22
2023-05-21 23:53:00,,0832.2,5.01,0.00,29.5,26.9,00.0,37.8,31.1,15.4,0003.6,0014.00,0019.93,0013.22
2023-05-21 23:54:00,,0832.3,5.00,0.00,29.5,27.2,00.0,37.8,31.2,15.7,0003.6,0014.04,0019.88,0013.23
2023-05-21 23:55:00,,0832.3,4.97,0.00,29.6,27.5,00.0,37.8,31.2,15.8,0003.5,0014.16,0019.84,0013.28
2023-05-21 23:56:00,,0832.1,5.00,0.00,29.6,27.7,00.0,37.9,31.3,15.5,0003.4,0014.20,0019.93,0013.32
2023-05-21 23:57:00,,0832.2,5.01,0.00,29.6,27.9,00.0,37.9,31.3,16.6,0003.4,0014.22,0020.18,0013.34
2023-05-21 23:58:00,,0832.0,4.99,0.00,29.6,28.1,00.0,37.9,31.4,15.7,0003.5,0014.22,0020.77,0013.32
2023-05-21 23:59:00,,0831.7,4.99,0.00,29.7,28.2,00.0,37.9,31.4,15.4,0003.7,0014.18,0020.72,0013.34
